FLOCK 2E'-5 (41567 NORAD) Tracking and Keplerian Element Data

This shows tracking and keplerian element data for the satellite.

Feedback or suggestion? Click here.




ElementValue
Catalog41567
NameFLOCK 2E'-5
Epoch Orbit11876
Epoch Day178.40169972
Epoch Year2018
RAAN248.8124
Inclination51.6189
Eccentricity0.000791
Argument of Perigee305.1771
Mean Anonmoly54.8513
Mean Motion16.38988334
Decay Rate0.11398691
L11 41567U 98067JR 18178.40169972 .11398691 12446-4 92239-3 0 9993
L22 41567 51.6189 248.8124 0007910 305.1771 54.8513 16.38988334118767

Live tracking and technical data element details for FLOCK 2E'-5 (NORAD 41567). FLOCK 2E'-5 can be tracked NOW for your location showing map with azimuth and elevation plus other details from your city location.

Track the satellite on the map from your city or location and see movement details for azimuth, elevation, latitude, longitude, range, height, and movement on the map or in text.







IsCatalogInMostPopularTable: catalog: 41567, numindb: 125
Update: records affected: 1



GetName: 41567 FLOCK 2E'-5

Hit Count: updated at: Mon, 19 Nov 2018 14:06:57 GMT